COSMOS 1275 DEB, 42150

Orbit data source: Space-Track

COSMOS 1275 DEB, 42150 is space debris in LEO originally from a launch on Thu, 04 Jun 1981 UTC launched from the Plesetsk Missile And Space Complex (PKMTR). Debris objects in space refer to the collection of defunct objects orbiting the Earth. Examples of debris include non-operational satellites, rocket bodies, and fragments generated from explosions, collisions, or faulty payload assembly.

Loading next visibility...
Identifier
42150, 1981-053RN
Orbit
LEO
Country
Flag of CISCIS
Related business
Manufacturer
Unknown
Mission
Spacecraft
Bus & Motor
Unknown
Mass
Unknown
Launch date (UTC)
1981-06-04 (45 years ago)
Launch vehicle
Unknown
Launch site
Plesetsk Missile And Space Complex (PKMTR)
Object type
Payload
Rocket body
Debris
Shape & HBR
Unknown shape, 0.1 m
Radar Cross Section
Small (<0.1 m²)

Expand to show TLE details & history
Last TLE update: 2 weeks ago

TLE from 2 weeks ago
0 COSMOS 1275 DEB
1 42150U 81053RN  26222.21545595  .00000538  00000-0  68900-3 0  9991
2 42150  83.0673  41.5980 0217212  73.5903 288.8995 13.51714419580705
Epoch: 2026-08-10T05:10Z
TLE epoch observation values (Epoch: 2026-08-10T05:10:15.394Z)
Latitude
-0.00003°
Longitude
5.33256°
Altitude
1,019.621 km
Speed
7.366 km/s
True Right ascension
02h 46m 23s
True Declination
0° 00' 00"
Sunlit
Object was in daylight at epoch
Visualization orbit readout
Latitude
Unknown
Longitude
Unknown
Altitude
Unknown
Speed
Unknown
Apparent Right ascension
Unknown
Apparent Declination
Unknown
Sunlit
N/A
Visualization observer readout
Local Sidereal Time
00:05:01
Azimuth
Unknown
Elevation
Unknown
Doppler factor
Unknown
Orbital elements
Apogee altitude
1,224.765 km
Perigee altitude
901.499 km
Semi-major axis
7,441.269 km
Eccentricity
0.02172
Inclination
83.0673°
RAAN
41.598°
Arg. of periapsis
73.5903°
True anomaly
286.52442°
Mean anomaly
288.8995°
Eccentric anomaly
287.71397°
Mean motion
3.38121 °/min
Orbital period
106.47 mins
BSTAR
0.000689
Loading maneuver chart data...
Computing Atmospheric mass density...
Loading historical data...
Loading historical data...
Loading historical data...
Loading historical data...
Loading historical data...
Loading historical data...
Loading historical data...

Documentation

Showing up to 5 results
|